Showing default

SENTINEL-2C, 60989

Orbit data source: Space-Track

SENTINEL-2C, 60989 is an ESA payload satellite in SSO that was launched on Thu, 05 Sep 2024 UTC via a VEGA launch vehicle from the French Guiana (FRGUI). Payloads include a variety of satellites, spacecraft, and rockets equipped with specific instruments for various scientific and technological missions. These include communications satellites like Starlink; space stations such as the ISS; scientific satellites like the Hubble; Earth observation satellites from companies like Planet Labs, Umbra, and HawkEye 360; GPS; miniature CubeSats for education and research; and military/defense satellites.

Loading next visibility...
SENTINEL-2C details
Identifier
60989, 2024-157A
Orbit
SSO
Last TLE update17 hours ago
Origin
Flag of ESACOPERN/ESA (ESA)
ManufacturerADS/Bremen
MissionOperational spacecraft
Bus & MotorSENTINEL-2, AOCS
Mass1,143 kg wet, 1,010 kg dry
Launch date (UTC)
2024-09-05 (4 months ago)
Launch vehicle
VEGA
Launch site
French Guiana (FRGUI)
Object type
Payload
Rocket body
Debris
Shape & HBRUnknown
Radar Cross SectionLarge (>1 m²)

Expand to show TLE details & history

TLE from 17 hours ago
0 SENTINEL-2C
1 60989U 24157A   25014.78125315  .00000230  00000-0  10437-3 0  9998
2 60989  98.5687  92.1163 0001053  94.7463 265.3840 14.30811306 18858
Epoch: 2025-01-14T18:45Z
Definitive object data (Epoch: 2025-01-14T18:45:00.272Z)
Latitude-0.00002°
Longitude56.38215°
Altitude792.015 km
Speed7.458 km/s
True Right ascension06h 08m 27s
True Declination0° 00' 00"
Sunlit
Object was in full shadow at TLE epoch
Visualization TLE readout
Latitude17.89407°
Longitude54.30103°
Altitude791.184 km
Speed7.46 km/s
Apparent Right ascension03h 43m 22s
Apparent Declination-12° 12' 25"
Sunlit
Object is in full shadow
Visualization observer readout
Local Sidereal Time12:17:15
Azimuth286.593° WNW
Elevation-37.018°
Doppler factor1
Orbital elements
Apogee altitude786.912 km
Perigee altitude785.403 km
Semi-major axis7,164.295 km
Eccentricity0.0001053
Inclination98.5687°
RAAN92.1163°
Arg. of periapsis94.7463°
True anomaly265.37197°
Mean anomaly265.384°
Eccentric anomaly265.37799°
Mean motion3.57918 °/min
BSTAR0.00010437
Orbital period100.58 mins
Loading maneuver chart data...
Loading historical data...
Loading historical data...
Loading historical data...
Loading historical data...
Loading historical data...
Loading historical data...
Loading historical data...
Other satellites on launch #157 in the year 2024 (2024-09-05 UTC)

SENTINEL-2C Visibility forecast

Observer location: undefined°, undefined

Span
Click to sort rows by Start time (UTC) header in descending order
Start Az.
Max El. time (UTC)
Max El. Az.
Max El.
End time (UTC)
End Az.
9 mins2025-01-15 17:09:02.090Z33.918° NE2025-01-15 17:14:02.090Z108.161° ESE27.962°2025-01-15 17:18:02.090Z159.612° S
7 mins2025-01-15 18:50:02.090Z339.566° N2025-01-15 18:53:02.090Z289.835° WNW26.065°2025-01-15 18:57:02.090Z235.709° WSW
8 mins2025-01-16 04:27:02.090Z137.326° SSE2025-01-16 04:31:02.090Z61.279° ENE35.466°2025-01-16 04:35:02.090Z1.693° NNE
6 mins2025-01-16 06:08:02.090Z232.52° WSW2025-01-16 06:10:02.090Z260.44° W19.177°2025-01-16 06:14:02.090Z312.711° NW
|